Location: Newark
(45.6833°N, 12.6333°E)
Time: 02:45:31
(UTC+00:00)

N. Korean satellite - Pass Details

Date: 26 November 2019
Orbit: 455 x 506 km, 97.2° (Epoch: 12 December)

Event Time Altitude Azimuth Distance (km) Brightness Sun altitude
Rises 16:53:09 0° 194° (SSW) 2,580 10.7 -14.2°
Reaches altitude 10° 16:55:28 10° 208° (SSW) 1,708 9.9 -14.6°
Maximum altitude 16:58:35 25° 265° (W) 1,043 9.1 -15.1°
Drops below altitude 10° 17:01:43 10° 323° (NW) 1,730 9.6 -15.7°
Sets 17:04:06 0° 337° (NNW) 2,622 10.4 -16.1°
